Tracking 18840 objects as of 19-November-2017
HD Live streaming from Space Station
objects crossing your sky now

FENGYUN 1C DEB

Track FENGYUN 1C DEB now!
10-day predictions


NORAD ID: 29842
Int'l Code: 1999-025EL
Perigee: 658.0 km
Apogee: 865.8 km
Inclination: 98.7 °
Period: 99.9 minutes
Semi major axis: 7132 km
RCS: 0.0208 m2 (small)
Launch date: May 10, 1999
Source: People's Republic of China (PRC)
Launch site: Taiyaun Space Center, China (TSC)

Note: This is SATELLITE DEBRIS
aabbcc
Your satellite tracking list
Your tracking list is empty




NASA's NSSDC Master Catalog

Two Line Element Set (TLE):
1 29842U 99025EL  17322.92699811 +.00000849 +00000-0 +24623-3 0  9991
2 29842 098.7052 299.0984 0145613 023.2068 033.0887 14.41131191567957
Source of the keplerian elements: AFSPC